| time (UTC) | temp F | wind direction | speed knots | gust knots | rain 1hr in | rain 24hr in | rain mn in | humidity % | barometer mb |
| 20260506143031 | 48 | 29 | 3.5 | 7.8 | 0.00 | 0.60 | 0.58 | 94 | 1009.3 |
| 20260506141531 | 48 | 13 | 3.5 | 7.8 | 0.00 | 0.60 | 0.58 | 95 | 1009.4 |
| 20260506124530 | 48 | 25 | 1.7 | 6.1 | 0.00 | 0.60 | 0.58 | 96 | 1009.0 |
| 20260506123030 | 48 | 7 | 2.6 | 9.6 | 0.00 | 0.60 | 0.58 | 96 | 1008.9 |
| 20260506121531 | 48 | 36 | 2.6 | 7.0 | 0.01 | 0.60 | 0.58 | 96 | 1008.9 |
| 20260506120029 | 48 | 18 | 2.6 | 7.0 | 0.01 | 0.60 | 0.58 | 96 | 1008.7 |
| 20260506113029 | 47 | 16 | 2.6 | 7.8 | 0.01 | 0.61 | 0.58 | 96 | 1008.9 |
| 20260506111530 | 47 | 37 | 2.6 | 7.0 | 0.01 | 0.60 | 0.57 | 96 | 1008.5 |
| 20260506110030 | 47 | 21 | 2.6 | 9.6 | 0.01 | 0.60 | 0.57 | 96 | 1008.8 |
| 20260506104529 | 46 | 23 | 3.5 | 11.3 | 0.01 | 0.60 | 0.57 | 96 | 1008.6 |
| 20260506103029 | 46 | 36 | 2.6 | 9.6 | 0.01 | 0.60 | 0.57 | 97 | 1008.5 |
| 20260506101530 | 46 | 16 | 2.6 | 7.8 | 0.01 | 0.60 | 0.56 | 97 | 1008.4 |
| 20260506100029 | 46 | 358 | 3.5 | 9.6 | 0.01 | 0.60 | 0.56 | 97 | 1008.4 |
| 20260506094530 | 46 | 21 | 3.5 | 7.8 | 0.01 | 0.60 | 0.56 | 97 | 1008.4 |
| 20260506091529 | 45 | 10 | 3.5 | 9.6 | 0.01 | 0.59 | 0.54 | 98 | 1008.2 |
| 20260506090029 | 45 | 20 | 3.5 | 7.8 | 0.01 | 0.59 | 0.54 | 98 | 1008.1 |
| 20260506084529 | 45 | 346 | 3.5 | 7.8 | 0.02 | 0.59 | 0.54 | 98 | 1008.1 |
| 20260506083029 | 45 | 10 | 3.5 | 9.6 | 0.01 | 0.58 | 0.53 | 98 | 1008.0 |
| 20260506081529 | 45 | 41 | 3.5 | 11.3 | 0.02 | 0.58 | 0.53 | 98 | 1007.9 |
| 20260506073029 | 45 | 2 | 4.3 | 11.3 | 0.04 | 0.57 | 0.52 | 98 | 1007.8 |
| 20260506071530 | 45 | 4 | 3.5 | 9.6 | 0.04 | 0.56 | 0.51 | 98 | 1007.6 |
| 20260506044531 | 48 | 1 | 2.6 | 7.0 | 0.08 | 0.51 | 0.41 | 99 | 1006.9 |
| 20260506043029 | 48 | 332 | 2.6 | 9.6 | 0.07 | 0.50 | 0.39 | 99 | 1007.1 |
| 20260506041529 | 48 | 353 | 2.6 | 7.8 | 0.07 | 0.50 | 0.38 | 99 | 1006.9 |
| 20260506040028 | 48 | 6 | 1.7 | 6.1 | 0.06 | 0.47 | 0.35 | 99 | 1007.1 |
| 20260506034530 | 48 | 5 | 1.7 | 6.1 | 0.05 | 0.46 | 0.33 | 99 | 1007.0 |
| 20260506033028 | 48 | 11 | 2.6 | 7.0 | 0.06 | 0.45 | 0.32 | 99 | 1007.2 |
| 20260506030028 | 48 | 22 | 2.6 | 7.8 | 0.08 | 0.43 | 0.30 | 99 | 1007.4 |
| 20260506024528 | 48 | 11 | 2.6 | 5.2 | 0.09 | 0.41 | 0.28 | 99 | 1007.4 |
| 20260506023028 | 48 | 2 | 3.5 | 7.8 | 0.09 | 0.39 | 0.26 | 99 | 1007.4 |
| 20260506021529 | 48 | 18 | 3.5 | 7.8 | 0.09 | 0.38 | 0.25 | 99 | 1007.6 |
| 20260506020027 | 48 | 29 | 3.5 | 7.8 | 0.08 | 0.34 | 0.21 | 99 | 1007.6 |
| 20260506014528 | 48 | 359 | 3.5 | 9.6 | 0.07 | 0.32 | 0.19 | 99 | 1007.8 |
| 20260506013028 | 48 | 7 | 3.5 | 9.6 | 0.06 | 0.30 | 0.17 | 99 | 1007.8 |
| 20260506011529 | 48 | 9 | 2.6 | 7.8 | 0.05 | 0.27 | 0.14 | 99 | 1007.7 |
| 20260506004527 | 48 | 19 | 3.5 | 7.8 | 0.06 | 0.25 | 0.12 | 99 | 1008.0 |
| 20260506003027 | 48 | 6 | 2.6 | 7.8 | 0.06 | 0.24 | 0.11 | 99 | 1008.1 |
| 20260506001528 | 48 | 7 | 2.6 | 6.1 | 0.06 | 0.24 | 0.09 | 99 | 1008.3 |
| 20260506000027 | 48 | 17 | 2.6 | 7.0 | 0.07 | 0.22 | 0.08 | 99 | 1008.2 |
| 20260505234528 | 48 | 354 | 2.6 | 7.0 | 0.06 | 0.21 | 0.06 | 99 | 1008.4 |
| 20260505233026 | 48 | 357 | 2.6 | 9.6 | 0.05 | 0.21 | 0.05 | 99 | 1008.6 |
| 20260505231527 | 49 | 15 | 2.6 | 9.6 | 0.04 | 0.21 | 0.04 | 98 | 1008.7 |
| 20260505224527 | 49 | 12 | 2.6 | 7.0 | 0.00 | 0.20 | 0.00 | 97 | 1008.9 |
| 20260505223026 | 49 | 1 | 3.5 | 9.6 | 0.00 | 0.20 | 0.00 | 97 | 1009.0 |
| 20260505221527 | 49 | 13 | 2.6 | 7.8 | 0.00 | 0.20 | 0.00 | 97 | 1009.1 |
| 20260505220026 | 49 | 5 | 4.3 | 9.6 | 0.00 | 0.20 | 0.00 | 96 | 1009.1 |
| 20260505214526 | 49 | 16 | 3.5 | 7.0 | 0.00 | 0.20 | 0.20 | 96 | 1009.2 |
| 20260505213026 | 49 | 19 | 3.5 | 9.6 | 0.00 | 0.20 | 0.20 | 97 | 1009.3 |
| 20260505210026 | 50 | 18 | 3.5 | 9.6 | 0.01 | 0.20 | 0.20 | 97 | 1009.5 |
| 20260505204526 | 50 | 13 | 2.6 | 6.1 | 0.02 | 0.20 | 0.20 | 97 | 1009.3 |
| 20260505203026 | 50 | 15 | 1.7 | 7.0 | 0.02 | 0.20 | 0.20 | 97 | 1009.5 |
| 20260505200026 | 50 | 3 | 1.7 | 3.5 | 0.01 | 0.19 | 0.19 | 96 | 1009.6 |
| 20260505194526 | 51 | 3 | 1.7 | 5.2 | 0.00 | 0.18 | 0.18 | 95 | 1009.4 |
| 20260505193026 | 51 | 38 | 1.7 | 5.2 | 0.00 | 0.18 | 0.18 | 93 | 1009.6 |
| 20260505191526 | 51 | 20 | 1.7 | 5.2 | 0.00 | 0.19 | 0.18 | 90 | 1009.5 |
| 20260505180026 | 51 | 19 | 3.5 | 9.6 | 0.00 | 0.40 | 0.18 | 90 | 1009.3 |
| 20260505174526 | 51 | 11 | 2.6 | 6.1 | 0.00 | 0.43 | 0.18 | 91 | 1009.4 |
| 20260505173027 | 51 | 8 | 3.5 | 7.8 | 0.00 | 0.50 | 0.18 | 91 | 1009.3 |
| 20260505171526 | 51 | 358 | 2.6 | 7.0 | 0.00 | 0.51 | 0.18 | 91 | 1009.2 |
| 20260505170025 | 51 | 357 | 2.6 | 7.0 | 0.00 | 0.51 | 0.18 | 92 | 1009.6 |
| 20260505164525 | 51 | 16 | 3.5 | 7.8 | 0.00 | 0.51 | 0.18 | 92 | 1009.3 |
| 20260505163025 | 51 | 10 | 3.5 | 9.6 | 0.00 | 0.51 | 0.18 | 93 | 1009.6 |
| 20260505161527 | 50 | 8 | 3.5 | 9.6 | 0.00 | 0.51 | 0.18 | 93 | 1009.5 |
| 20260505151525 | 51 | 8 | 3.5 | 9.6 | 0.00 | 0.51 | 0.18 | 94 | 1010.1 |